Location: Saint-Hippolyte
(43.6394°N, 4.7559°E)
Time: 15:54:39
(UTC+00:00)

CZ-2D R/B - Pass Details

Date: 24 October 2020
Orbit: 521 x 538 km, 97.4° (Epoch: 24 November)

Event Time Altitude Azimuth Distance (km) Brightness Sun altitude
Rises 18:12:38 0° 174° (S) 2,654 6.8 -16.9°
Reaches altitude 10° 18:14:45 10° 177° (S) 1,767 5.9 -17.3°
Maximum altitude 18:18:32 64° 259° (W) 589 3.7 -18.0°
Drops below altitude 10° 18:22:20 10° 342° (NNW) 1,773 6.1 -18.6°
Sets 18:24:28 0° 345° (NNW) 2,665 7.0 -19.0°
